2020 BV9
ephemeris date magn radius delta ra dec elong phase
Today20 Oct 202528.51.241 AU1.017 AU08h54m+20°12'76.1°51.2°
2020 BV9 - 2025-10-20
astro.vanbuitenen.nl


 
-1 year
-1 month
-1 day
Now
+1 day
+1 month
+1 year

The interactive orbit chart above shows the body's path through the solar system and its position at the given date. Green and blue lines are shown perpendicular to the ecliptic plane: Green if the path is above the ecliptic plane, blue if it is below. (Left-click and drag to rotate the view; Right-click and drag to move the view; Use scroll wheel to zoom in our out.)

The orbital elements of 2020 BV9 are:

            e (Eccentricity)                : 0.2524261
            a (Semimajor axis)              : 0.9910068
            i (Inclination)                 : 3.32307
            Ω (Longitude of ascending node) : 300.41326
            ω (Argument of perihelion)      : 318.03825
            M (Mean anomaly)                : 13.26955
            Epoch                           : 2025 May 05

            L (Longitude of perihelion)     : 258.49945
            B (Latitude of perihelion)      : -2.22123
            P (Orbital period in years)     : 0.99            
        

The light curve chart below shows the estimated development of the minor planet's magnitude.


The all-sky chart below shows the path of the minor planet over the same period as the light curve. The current position is marked yellow.





The following chart shows the path of the minor planet in the next few days. The field of view is optimized for (~10x50) binoculars and finderscopes.




Ephemerides:
Date       Time       RA (2000)    DEC (2000)    delta   radius  elong  phase   PA    magn
2025-10-20 00:00 UT   08 54 27.7   +20 12 34     1.017    1.241   76.1   51.2   287   28.5 
2025-10-20 21:40 UT   08 56 59.9   +20 01 24     1.011    1.241   76.4   51.2   287   28.5 
2025-10-21 00:00 UT   08 57 16.3   +20 00 11     1.011    1.241   76.4   51.2   287   28.5 
2025-10-22 00:00 UT   09 00 04.7   +19 47 36     1.004    1.241   76.7   51.3   287   28.5 
2025-10-23 00:00 UT   09 02 52.8   +19 34 50     0.998    1.241   77.0   51.4   287   28.5 
2025-10-24 00:00 UT   09 05 40.7   +19 21 53     0.991    1.241   77.3   51.5   287   28.5 
2025-10-25 00:00 UT   09 08 28.4   +19 08 45     0.984    1.240   77.6   51.6   288   28.4 
2025-10-26 00:00 UT   09 11 16.0   +18 55 25     0.978    1.240   77.9   51.6   288   28.4 
2025-10-27 00:00 UT   09 14 03.4   +18 41 55     0.971    1.240   78.2   51.7   288   28.4 
2025-10-28 00:00 UT   09 16 50.6   +18 28 12     0.964    1.239   78.5   51.8   288   28.4 
2025-10-29 00:00 UT   09 19 37.7   +18 14 19     0.957    1.239   78.8   51.9   288   28.4 
2025-10-30 00:00 UT   09 22 24.6   +18 00 14     0.950    1.238   79.1   52.0   288   28.4 
2025-10-31 00:00 UT   09 25 11.5   +17 45 58     0.943    1.238   79.4   52.1   289   28.4 
2025-11-01 00:00 UT   09 27 58.3   +17 31 30     0.937    1.237   79.7   52.1   289   28.3 


    Terminology:
            
    delta:  distance between minor planet and earth in AU
    radius: distance between minor planet and sun in AU
    magn:   magnitude (brightness) estimate    
    ra:     right ascension in hours (24h = 360deg)
    dec:    declination in degrees
    elong:  elongation in degrees (angle sun-earth-minor planet)    
    phase:  phase angle in degrees (angle sun-minor planet-earth)        
    AU:     Astronomical Unit (mean distance between earth and sun: 149597870.7 km
    

Orbital elements provided by the MPC (Minor Planet Center).
Calculations by a modified version of AAPlus, a C# implementation of the AA+ project by PJ Naughter from the algorithms presented in the book "Astronomical Algorithms" by Jean Meeus.
NGC2000 dso catalog and star labels from VizieR as provided by the Strasbourg astronomical Data Center.
Tycho2 catalog from the ESO archive.